GW4961 Weather Reports


time (UTC)temp
C
wind
direction
speed
KPH
gust
KPH
rain 1hr
cm
rain 24hr
cm
rain mn
cm
humidity
%
barometer
mb
20260504141204 31 96 1.6 6.4 0.00 0.33 0.33 76 1010.0
20260504140904 31 91 1.6 6.4 0.00 0.33 0.33 76 1010.0
20260504140604 31 90 1.6 4.8 0.00 0.33 0.33 76 1010.0
20260504140304 31 98 1.6 4.8 0.00 0.33 0.33 76 1010.0
20260504130625 31 108 1.6 4.8 0.00 0.33 0.33 74 1010.0
20260504120304 31 101 3.2 9.7 0.00 0.33 0.33 74 1010.0
20260504110604 31 131 1.6 6.4 0.00 0.33 0.33 74 1010.0
20260504110304 32 123 1.6 6.4 0.00 0.33 0.33 74 1010.0
20260504100604 32 130 1.6 4.8 0.00 0.33 0.33 74 1010.0
20260504100325 32 124 1.6 6.4 0.00 0.33 0.33 74 1010.0
20260504081804 32 168 3.2 9.7 0.00 0.33 0.33 72 1010.0
20260504081526 32 150 3.2 9.7 0.00 0.33 0.33 72 1010.0
20260504081204 32 177 3.2 9.7 0.00 0.33 0.33 72 1010.0
20260504080904 32 154 3.2 9.7 0.00 0.33 0.33 72 1010.0
20260504080625 32 148 1.6 6.4 0.00 0.33 0.33 72 1010.0
20260504070304 31 128 1.6 6.4 0.00 0.33 0.33 74 1010.0
20260504050625 31 162 1.6 4.8 0.00 0.33 0.33 79 1010.0
20260504050304 31 158 1.6 4.8 0.00 0.33 0.33 79 1010.0
20260504050025 31 156 1.6 6.4 0.00 0.33 0.33 79 1010.0
20260504045725 31 145 1.6 6.4 0.00 0.33 0.33 79 1010.0
20260504045404 31 155 1.6 6.4 0.00 0.33 0.33 79 1010.0
20260504045104 31 139 1.6 6.4 0.00 0.33 0.33 79 1010.0
20260504044804 31 131 3.2 8.0 0.00 0.33 0.33 79 1010.0
20260504044525 31 131 3.2 8.0 0.00 0.33 0.33 79 1010.0
20260504044204 31 124 1.6 8.0 0.00 0.33 0.33 79 1010.0
20260504043904 31 141 1.6 8.0 0.00 0.33 0.33 80 1010.0
20260504043604 31 141 1.6 6.4 0.00 0.33 0.33 80 1010.0
20260504043304 31 149 1.6 6.4 0.00 0.33 0.33 80 1010.0
20260504043004 31 137 1.6 6.4 0.00 0.33 0.33 80 1010.0
20260504042704 30 134 1.6 6.4 0.00 0.33 0.33 80 1010.0
20260504042404 30 129 1.6 6.4 0.00 0.33 0.33 81 1010.0
20260504042104 30 129 1.6 6.4 0.00 0.33 0.33 81 1010.0
20260504041804 30 124 1.6 6.4 0.00 0.33 0.33 81 1010.0
20260504041504 30 121 1.6 4.8 0.00 0.33 0.33 81 1010.0
20260504041204 30 121 1.6 4.8 0.00 0.33 0.33 82 1010.0
20260504040904 30 126 1.6 6.4 0.00 0.33 0.33 82 1010.0
20260504040604 30 131 1.6 6.4 0.00 0.33 0.33 82 1010.0
20260504040325 30 108 3.2 6.4 0.00 0.33 0.33 82 1010.0
20260504040004 30 89 3.2 6.4 0.00 0.33 0.33 82 1010.0
20260504035725 30 106 3.2 6.4 0.00 0.33 0.33 82 1010.0
20260504035404 30 118 3.2 6.4 0.00 0.33 0.33 82 1010.0
20260504035125 30 121 1.6 6.4 0.00 0.33 0.33 82 1010.0
20260504034804 30 131 1.6 6.4 0.00 0.33 0.33 82 1010.0
20260504034504 30 323 1.6 6.4 0.00 0.33 0.33 82 1010.0
20260504034204 30 338 1.6 6.4 0.00 0.33 0.33 82 1010.0
20260504033904 30 306 1.6 6.4 0.00 0.33 0.33 82 1010.0
20260504033604 30 147 1.6 4.8 0.00 0.33 0.33 82 1010.0
20260504033304 30 168 1.6 4.8 0.00 0.33 0.33 82 1010.0
20260504033025 30 129 1.6 6.4 0.00 0.33 0.33 82 1010.0
20260504032704 30 154 1.6 6.4 0.00 0.33 0.33 82 1010.0
20260504032404 30 156 1.6 6.4 0.00 0.33 0.33 83 1010.0
20260504032104 30 168 1.6 6.4 0.00 0.33 0.33 83 1010.0
20260504031804 30 167 1.6 4.8 0.00 0.33 0.33 83 1010.0
20260504031504 30 172 1.6 4.8 0.00 0.33 0.33 83 1010.0
20260504031225 30 159 1.6 4.8 0.00 0.33 0.33 83 1010.0
20260504030905 30 174 1.6 4.8 0.00 0.33 0.33 83 1010.0
20260504030625 30 182 1.6 4.8 0.00 0.33 0.33 83 1010.0
20260504030304 30 183 1.6 4.8 0.00 0.33 0.33 83 1010.0
20260504030004 30 190 1.6 4.8 0.00 0.33 0.33 83 1010.0
20260504025704 30 181 1.6 4.8 0.00 0.33 0.33 83 1010.0
20260504025425 29 190 1.6 4.8 0.00 0.33 0.33 83 1010.0
20260504025104 29 201 1.6 4.8 0.00 0.33 0.33 83 1010.0
20260504024804 29 207 1.6 4.8 0.00 0.33 0.33 83 1010.0
20260504024504 30 221 0.0 3.2 0.00 0.33 0.33 83 1010.0
20260504024204 30 197 0.0 3.2 0.00 0.33 0.33 83 1010.0
20260504023905 30 178 0.0 3.2 0.00 0.33 0.33 83 1010.0
20260504023604 30 165 0.0 3.2 0.00 0.33 0.33 83 1010.0
20260504023304 29 151 0.0 3.2 0.00 0.33 0.33 84 1010.0
20260504023025 29 169 0.0 4.8 0.00 0.33 0.33 83 1010.0
20260504022704 29 180 1.6 4.8 0.00 0.33 0.33 83 1010.0
20260504022404 29 175 1.6 4.8 0.00 0.33 0.33 83 1010.0
20260504022104 29 154 1.6 4.8 0.00 0.33 0.33 83 1010.0
20260504021804 29 141 1.6 4.8 0.00 0.33 0.33 84 1010.0
20260504021504 30 129 0.0 4.8 0.00 0.33 0.33 83 1010.0
20260504021225 29 142 0.0 4.8 0.00 0.33 0.33 83 1010.0
20260504020904 29 143 1.6 4.8 0.00 0.33 0.33 83 1010.0
20260504020604 29 134 0.0 4.8 0.00 0.33 0.33 83 1010.0
20260504020304 29 131 0.0 4.8 0.00 0.33 0.33 83 1010.0
20260504020025 29 92 0.0 3.2 0.00 0.33 0.33 83 1010.0
20260504015725 29 98 0.0 1.6 0.00 0.33 0.33 83 1010.0
20260504015404 29 99 0.0 3.2 0.00 0.33 0.33 82 1010.0
20260504015104 29 107 0.0 3.2 0.00 0.33 0.33 82 1010.0
20260504014804 29 103 0.0 3.2 0.00 0.33 0.33 82 1010.0
20260504014525 29 103 0.0 3.2 0.00 0.33 0.33 82 1010.0
20260504014204 29 125 0.0 4.8 0.00 0.33 0.33 82 1010.0
20260504013925 29 160 1.6 4.8 0.00 0.33 0.33 82 1010.0
20260504013604 29 167 1.6 4.8 0.00 0.33 0.33 83 1010.0
20260504013304 29 173 1.6 3.2 0.00 0.33 0.33 83 1010.0
20260504013004 29 140 0.0 3.2 0.00 0.33 0.33 83 1010.0
20260504012704 30 129 0.0 3.2 0.00 0.33 0.33 82 1010.0
20260504012404 29 139 0.0 4.8 0.00 0.33 0.33 82 1010.0
20260504012104 29 150 1.6 4.8 0.00 0.33 0.33 82 1010.0
20260504011804 30 151 1.6 6.4 0.00 0.33 0.33 81 1010.0
20260504011504 30 164 1.6 6.4 0.00 0.33 0.33 81 1010.0
20260504011204 30 171 1.6 6.4 0.00 0.33 0.33 81 1010.0
20260504010904 30 158 1.6 6.4 0.00 0.33 0.33 81 1010.0
20260504010604 30 149 1.6 6.4 0.00 0.33 0.33 81 1010.0
20260504010304 30 133 1.6 6.4 0.00 0.33 0.33 81 1010.0
20260504010004 30 125 1.6 6.4 0.00 0.33 0.33 81 1010.0
20260504005704 30 124 1.6 6.4 0.00 0.33 0.33 81 1010.0
20260504005404 30 103 1.6 4.8 0.00 0.33 0.33 82 1010.0
20260504005104 30 99 1.6 4.8 0.00 0.33 0.33 81 1010.0
20260504004804 30 107 1.6 4.8 0.00 0.33 0.33 81 1010.0
20260504004504 30 104 1.6 4.8 0.00 0.33 0.33 81 1010.0
20260504004225 30 105 1.6 4.8 0.00 0.33 0.33 81 1010.0
20260504003904 30 73 0.0 3.2 0.00 0.33 0.33 81 1010.0
20260504003604 30 82 0.0 3.2 0.00 0.33 0.33 81 1010.0
20260504003304 30 69 0.0 3.2 0.00 0.33 0.33 81 1010.0
20260504003004 30 88 0.0 3.2 0.00 0.33 0.33 81 1010.0
20260504002704 30 92 0.0 3.2 0.00 0.33 0.33 81 1010.0
20260504002404 30 84 0.0 4.8 0.00 0.33 0.33 81 1010.0
20260504002125 30 85 0.0 4.8 0.00 0.33 0.33 81 1010.0
20260504001804 30 76 1.6 4.8 0.00 0.33 0.33 81 1010.0
20260504001504 30 80 1.6 4.8 0.00 0.33 0.33 81 1010.0
20260504001225 30 83 1.6 3.2 0.00 0.33 0.33 81 1010.0
20260504000925 30 72 0.0 3.2 0.00 0.33 0.33 81 1010.0
20260504000604 30 67 0.0 3.2 0.00 0.33 0.33 81 1010.0
20260504000304 30 68 0.0 3.2 0.00 0.33 0.33 81 1010.0
20260504000004 30 69 0.0 3.2 0.00 0.33 0.33 81 1010.0
20260503235704 30 85 0.0 4.8 0.00 0.33 0.33 81 1010.0
20260503235425 30 92 1.6 4.8 0.00 0.33 0.33 81 1010.0
20260503235104 30 93 1.6 4.8 0.00 0.33 0.33 81 1010.0
20260503234804 30 100 1.6 6.4 0.00 0.33 0.33 81 1010.0
20260503234504 30 105 1.6 6.4 0.00 0.33 0.33 81 1010.0
20260503234205 30 105 1.6 6.4 0.00 0.33 0.33 81 1010.0
20260503233904 30 108 1.6 6.4 0.00 0.33 0.33 81 1010.0
20260503233604 30 86 0.0 4.8 0.00 0.33 0.33 81 1010.0
20260503233304 30 77 0.0 3.2 0.00 0.33 0.33 81 1010.0
20260503233004 30 68 0.0 3.2 0.00 0.33 0.33 81 1010.0
20260503232704 30 72 0.0 3.2 0.00 0.33 0.33 81 1010.0
20260503232404 30 76 0.0 3.2 0.00 0.33 0.33 81 1010.0
20260503232125 30 92 1.6 4.8 0.00 0.33 0.33 81 1010.0
20260503231825 30 105 1.6 4.8 0.00 0.33 0.33 81 1010.0
20260503231504 30 103 1.6 4.8 0.00 0.33 0.33 80 1010.0
20260503231225 30 102 1.6 4.8 0.00 0.33 0.33 81 1010.0
20260503230904 30 89 1.6 6.4 0.00 0.33 0.33 81 1010.0
20260503230604 30 81 1.6 6.4 0.00 0.33 0.33 81 1010.0
20260503230304 30 93 1.6 6.4 0.00 0.33 0.33 81 1010.0
20260503230004 30 108 1.6 6.4 0.00 0.33 0.33 81 1010.0
20260503225725 30 129 1.6 6.4 0.00 0.33 0.33 81 1010.0
20260503225404 30 108 1.6 6.4 0.00 0.33 0.33 80 1010.0
20260503225104 30 111 0.0 4.8 0.00 0.33 0.33 81 1010.0
20260503224804 30 123 0.0 3.2 0.00 0.33 0.33 80 1010.0
20260503224504 30 120 0.0 4.8 0.00 0.33 0.33 80 1010.0
20260503224204 30 134 1.6 4.8 0.00 0.33 0.33 80 1010.0
20260503223904 30 129 1.6 4.8 0.00 0.33 0.33 80 1010.0
20260503223604 30 126 1.6 4.8 0.00 0.33 0.33 80 1010.0
20260503223304 30 122 1.6 3.2 0.00 0.33 0.33 80 1010.0
20260503223004 30 89 1.6 3.2 0.00 0.33 0.33 80 1010.0
20260503222725 30 110 0.0 3.2 0.00 0.33 0.33 80 1010.0
20260503222404 30 97 1.6 3.2 0.00 0.33 0.33 80 1010.0
20260503222104 30 132 0.0 4.8 0.00 0.33 0.33 80 1010.0
20260503221804 30 136 1.6 4.8 0.00 0.33 0.33 80 1010.0
20260503221504 30 145 1.6 4.8 0.00 0.33 0.33 80 1010.0
20260503221204 30 131 1.6 4.8 0.00 0.33 0.33 80 1010.0
20260503220904 30 99 1.6 4.8 0.00 0.33 0.33 80 1010.0
20260503220625 30 73 1.6 4.8 0.00 0.33 0.33 80 1010.0
20260503220304 30 83 1.6 4.8 0.00 0.33 0.33 80 1010.0
20260503220004 30 114 1.6 4.8 0.00 0.33 0.33 80 1010.0
20260503215704 30 132 1.6 4.8 0.00 0.33 0.33 80 1010.0
20260503215404 30 127 1.6 4.8 0.00 0.33 0.33 80 1010.0
20260503215104 30 152 1.6 4.8 0.00 0.33 0.33 80 1010.0
20260503214804 30 148 1.6 4.8 0.00 0.33 0.33 80 1010.0
20260503214504 30 156 1.6 3.2 0.03 0.33 0.33 80 1010.0
20260503214204 30 155 1.6 4.8 0.10 0.33 0.33 80 1010.0
20260503213925 30 146 1.6 4.8 0.13 0.33 0.33 80 1010.0
20260503213604 30 150 1.6 4.8 0.15 0.33 0.33 80 1010.0
20260503213304 30 134 1.6 4.8 0.15 0.33 0.33 80 1010.0
20260503213004 30 144 1.6 3.2 0.15 0.33 0.33 80 1010.0
20260503212704 30 141 1.6 3.2 0.15 0.33 0.33 80 1010.0
20260503212404 30 125 0.0 3.2 0.15 0.33 0.33 80 1010.0
20260503212104 30 108 0.0 3.2 0.15 0.33 0.33 80 1010.0
20260503211804 30 112 0.0 3.2 0.15 0.33 0.33 80 1010.0
20260503211504 30 126 1.6 3.2 0.15 0.33 0.33 80 1010.0
20260503211225 30 130 0.0 3.2 0.15 0.33 0.33 80 1010.0
20260503210904 30 120 0.0 3.2 0.15 0.33 0.33 79 1010.0
20260503210604 30 100 0.0 4.8 0.15 0.33 0.33 79 1010.0
20260503210304 30 107 1.6 4.8 0.15 0.33 0.33 79 1010.0
20260503210004 30 120 1.6 4.8 0.15 0.33 0.33 79 1010.0
20260503205704 30 125 1.6 6.4 0.15 0.33 0.33 79 1010.0
20260503205404 30 123 3.2 6.4 0.15 0.33 0.33 79 1010.0
20260503205104 30 110 3.2 6.4 0.15 0.33 0.33 79 1010.0
20260503204804 30 106 3.2 6.4 0.13 0.30 0.30 80 1010.0
20260503204504 30 112 1.6 6.4 0.13 0.30 0.30 80 1010.0
20260503204204 30 117 3.2 6.4 0.05 0.23 0.23 80 1010.0
20260503203904 30 132 3.2 6.4 0.00 0.18 0.18 80 1010.0
20260503203604 30 120 1.6 6.4 0.00 0.18 0.18 80 1010.0
20260503203304 30 124 1.6 6.4 0.00 0.18 0.18 80 1010.0
20260503203025 30 128 1.6 4.8 0.00 0.18 0.18 80 1010.0
20260503202704 30 87 1.6 6.4 0.00 0.18 0.18 80 1010.0
20260503202404 30 50 1.6 6.4 0.00 0.18 0.18 80 1010.0
20260503202125 30 41 1.6 6.4 0.00 0.18 0.18 80 1010.0
20260503201804 30 31 1.6 6.4 0.00 0.18 0.18 80 1010.0
20260503201504 30 143 1.6 4.8 0.00 0.18 0.18 80 1010.0
20260503201204 30 158 1.6 4.8 0.00 0.18 0.18 80 1010.0
20260503200904 30 157 1.6 4.8 0.00 0.18 0.18 80 1010.0
20260503200604 30 144 1.6 4.8 0.00 0.18 0.18 80 1010.0
20260503200304 30 149 1.6 4.8 0.00 0.18 0.18 80 1010.0
20260503200025 30 173 1.6 4.8 0.00 0.18 0.18 80 1010.0
20260503195704 30 161 1.6 4.8 0.00 0.18 0.18 80 1010.0
20260503195404 30 114 1.6 4.8 0.00 0.18 0.18 80 1010.0
20260503195105 30 89 1.6 4.8 0.00 0.18 0.18 80 1010.0
20260503194804 30 47 1.6 6.4 0.00 0.18 0.18 80 1010.0
20260503194504 30 33 1.6 6.4 0.00 0.18 0.18 80 1010.0
20260503194225 30 26 3.2 6.4 0.00 0.18 0.18 80 1010.0
20260503193904 30 95 1.6 6.4 0.00 0.18 0.18 80 1010.0
20260503193604 30 158 1.6 4.8 0.00 0.18 0.18 80 1010.0
20260503193304 30 123 1.6 4.8 0.00 0.18 0.18 80 1010.0
20260503193004 30 139 1.6 4.8 0.18 0.18 0.18 80 1010.0
20260503192704 30 123 1.6 4.8 0.18 0.18 0.18 80 1010.0
20260503192425 30 144 1.6 6.4 0.18 0.18 0.18 80 1010.0
20260503192104 30 131 1.6 6.4 0.18 0.18 0.18 80 1010.0
20260503191804 30 155 1.6 6.4 0.18 0.18 0.18 80 1010.0
20260503191504 30 165 1.6 6.4 0.18 0.18 0.18 80 1010.0
20260503191204 30 146 1.6 6.4 0.18 0.18 0.18 80 1010.0
20260503190904 30 131 1.6 6.4 0.18 0.18 0.18 80 1010.0
20260503190604 30 78 1.6 8.0 0.18 0.18 0.18 80 1010.0
20260503190304 30 48 3.2 8.0 0.18 0.18 0.18 80 1010.0
20260503190004 30 47 3.2 8.0 0.18 0.18 0.18 80 1010.0
20260503185704 30 61 1.6 8.0 0.18 0.18 0.18 80 1010.0
20260503185404 30 114 1.6 4.8 0.18 0.18 0.18 80 1010.0
20260503185104 30 121 0.0 4.8 0.18 0.18 0.18 80 1010.0
20260503184804 30 118 0.0 3.2 0.18 0.18 0.18 80 1010.0
20260503184525 30 113 0.0 3.2 0.18 0.18 0.18 80 1010.0
20260503184204 30 107 0.0 3.2 0.18 0.18 0.18 80 1010.0
20260503183904 30 98 0.0 3.2 0.18 0.18 0.18 80 1010.0
20260503183625 30 104 0.0 3.2 0.18 0.18 0.18 80 1010.0
20260503183304 30 112 0.0 3.2 0.18 0.18 0.18 80 1010.0
20260503183004 30 115 0.0 3.2 0.00 0.00 0.00 80 1010.0
20260503182704 30 110 0.0 3.2 0.00 0.00 0.43 80 1010.0
20260503182425 30 109 0.0 3.2 0.00 0.00 0.43 80 1010.0
20260503182104 30 104 0.0 3.2 0.00 0.00 0.43 80 1010.0
20260503181826 30 107 0.0 3.2 0.00 0.00 0.43 80 1010.0
20260503181505 30 101 0.0 3.2 0.00 0.00 0.43 80 1010.0
20260503181204 30 104 0.0 1.6 0.00 0.00 0.43 80 1010.0
20260503180904 30 107 0.0 1.6 0.00 0.00 0.43 80 1010.0
20260503180604 30 105 0.0 1.6 0.00 0.00 0.43 80 1010.0
20260503180304 30 90 0.0 1.6 0.00 0.00 0.43 80 1010.0
20260503180004 31 78 0.0 1.6 0.00 0.00 0.43 80 1010.0
20260503175704 31 91 0.0 1.6 0.00 0.00 0.43 80 1010.0
20260503175404 31 100 0.0 1.6 0.00 0.00 0.43 80 1010.0
20260503175104 31 101 0.0 1.6 0.00 0.00 0.43 80 1010.0
20260503174804 31 110 0.0 1.6 0.00 0.00 0.43 80 1010.0
20260503174525 31 109 0.0 1.6 0.00 0.25 0.43 80 1010.0
20260503174204 31 111 0.0 1.6 0.00 0.25 0.43 80 1010.0
20260503173904 31 94 0.0 1.6 0.00 0.25 0.43 80 1010.0
20260503173604 31 81 0.0 1.6 0.00 0.25 0.43 80 1010.0
20260503173304 31 66 0.0 1.6 0.00 0.25 0.43 80 1010.0
20260503173004 31 80 0.0 1.6 0.00 0.25 0.43 80 1010.0
20260503172704 31 85 0.0 3.2 0.00 0.25 0.43 80 1010.0
20260503172404 31 102 0.0 3.2 0.00 0.28 0.43 80 1010.0
20260503172104 31 79 0.0 3.2 0.00 0.28 0.43 81 1010.0
20260503171804 31 72 0.0 4.8 0.00 0.28 0.43 81 1010.0
20260503171504 31 73 0.0 4.8 0.00 0.28 0.43 81 1010.0
20260503171225 31 73 0.0 4.8 0.00 0.28 0.43 81 1010.0
20260503170904 31 81 0.0 4.8 0.00 0.28 0.43 80 1010.0
20260503170604 31 100 0.0 1.6 0.00 0.28 0.43 80 1010.0
20260503170304 31 0 0.0 0.0 0.00 0.28 0.43 80 1010.0
20260503150904 31 91 0.0 3.2 0.00 0.43 0.43 80 1010.0
20260503150604 31 82 0.0 3.2 0.00 0.43 0.43 80 1010.0
20260503150304 31 73 0.0 1.6 0.00 0.43 0.43 79 1010.0